Flag for USA

Past Weather in 41°45'12"N, 71°26'54"W, USA — Yesterday and Last 2 Weeks

Currently: 32 °F. Mostly cloudy. (Weather station: Green State Airport, USA). See more current weather

Past Weather in 41°45'12"N, 71°26'54"W — Graph

°F

41°45'12"N, 71°26'54"W Temperature Yesterday

Maximum temperature yesterday: 49 °F (at 8:51 am)
Minimum temperature yesterday: 45 °F (at 8:51 pm)
Average temperature yesterday: 47 °F

High & Low Weather Summary for the Past Weeks

 TemperatureHumidityPressure
High75 °F (Oct 22, 12:51 pm)100% (Oct 16, 1:05 pm)30.55 "Hg (Oct 16, 1:05 pm)
Low32 °F (Oct 30, 2:25 pm)36% (Oct 17, 4:51 pm)29.64 "Hg (Oct 29, 9:51 pm)
Average54 °F87%30.14 "Hg
* Reported Oct 15 5:51 pm — Oct 30 5:01 pm, 41°45'12"N, 71°26'54"W. Weather by CustomWeather, © 2020

Note: Actual official high and low records may vary slightly from our data, if they occured in-between our weather recording intervals... More about our weather records

41°45'12"N, 71°26'54"W Weather History for the Previous 24 Hours

Scroll right to see more
 ConditionsComfort  
Time TempWeatherWind HumidityBarometerVisibility
5:01 pm
Fri, Oct 30
32 °FLight snow. Ice fog.14 mph92%30.02 "Hg2 mi
4:38 pm32 °FLight snow. Ice fog.14 mph92%30.00 "Hg3 mi
4:22 pm33 °FLight snow. Fog.10 mph92%30.00 "Hg3 mi
3:34 pm32 °FLight snow. Ice fog.16 mph92%29.97 "Hg1 mi
3:11 pm32 °FLight snow. Ice fog.16 mph96%29.96 "Hg1 mi
2:51 pm32 °FLight snow. Ice fog.14 mph96%29.95 "Hg1 mi
2:25 pm32 °FLight snow. Ice fog.17 mph96%29.94 "Hg1 mi
2:09 pm33 °FLight snow. Fog.16 mph92%29.93 "Hg1 mi
1:33 pm33 °FLight snow. Fog.20 mph92%29.91 "Hg1 mi
1:24 pm33 °FLight snow. Fog.20 mph92%29.91 "Hg1 mi
12:59 pm33 °FLight snow. Fog.14 mph96%29.89 "Hg1 mi
12:42 pm33 °FLight snow. Fog.18 mph92%29.88 "Hg1 mi
11:51 am33 °FLight snow. Fog.21 mph92%29.85 "Hg1 mi
11:35 am33 °FLight snow. Fog.18 mph92%29.85 "Hg1 mi
10:51 am33 °FSnow. Fog.22 mph96%29.85 "Hg1 mi
10:34 am33 °FSnow. Fog.18 mph92%29.85 "Hg1 mi
10:02 am33 °FLight snow. Fog.20 mph96%29.83 "Hg1 mi
9:30 am33 °FLight snow. Fog.20 mph96%29.83 "Hg1 mi
9:20 am33 °FLight snow. Fog.18 mph96%29.83 "Hg1 mi
8:51 am34 °FLight snow. Fog.18 mph97%29.81 "Hg2 mi
8:30 am35 °FLight snow. Fog.20 mph92%29.80 "Hg2 mi
7:53 am35 °FRain. Fog.20 mph96%29.78 "Hg3 mi
7:00 am37 °FLight rain. Fog.15 mph96%29.74 "Hg5 mi
6:10 am40 °FLight rain. Fog.16 mph93%29.73 "Hg4 mi
5:51 am41 °FLight rain. Fog.20 mph93%29.72 "Hg5 mi
5:08 am41 °FLight rain. Fog.17 mph96%29.75 "Hg4 mi
4:51 am41 °FLight rain. Fog.15 mph96%29.75 "Hg3 mi
4:37 am42 °FRain. Fog.15 mph96%29.74 "Hg2 mi
3:51 am43 °FLight rain. Fog.22 mph97%29.70 "Hg4 mi
2:51 am45 °FLight rain. Mostly cloudy.17 mph93%29.70 "Hg7 mi
2:18 am45 °FLight rain. Fog.16 mph97%29.69 "Hg3 mi
2:11 am45 °FLight rain. Fog.15 mph93%29.67 "Hg4 mi
2:00 am45 °FLight rain. Mostly cloudy.21 mph93%29.67 "Hg7 mi
12:58 am46 °FMostly cloudy.15 mph93%29.67 "Hg9 mi
12:38 am46 °FLight rain. Fog.21 mph96%29.68 "Hg6 mi
12:05 am47 °FLight rain. Fog.16 mph93%29.67 "Hg3 mi
11:41 pm
Thu, Oct 29
47 °FLight rain. Fog.18 mph93%29.67 "Hg3 mi
10:51 pm46 °FLight rain. Fog.15 mph96%29.64 "Hg6 mi
9:51 pm45 °FLight rain. Fog.16 mph97%29.64 "Hg4 mi
8:51 pm45 °FRain. Fog.18 mph97%29.67 "Hg4 mi
7:51 pm46 °FRain. Fog.16 mph96%29.68 "Hg5 mi
6:51 pm46 °FRain. Fog.16 mph96%29.69 "Hg3 mi
6:35 pm46 °FRain. Fog.14 mph96%29.69 "Hg3 mi
Weather by CustomWeather, © 2020

See weather overview